Location: ???????
(55.4362°N, 38.1183°E)
Time: 21:06:06
(UTC+00:00)

M-CUBED/EXP-1 PRIME - Pass Details

Date: 15 December 2021
Orbit: 426 x 650 km, 101.7° (Epoch: 26 January)

Event Time Altitude Azimuth Distance (km) Brightness Sun altitude
Rises 14:27:13 0° 138° (SE) 2,917 ? -11.6°
Reaches altitude 10° 14:29:25 10° 133° (SE) 2,032 ? -11.8°
Maximum altitude 14:33:42 49° 60° (ENE) 850 ? -12.4°
Drops below altitude 10° 14:38:04 10° 346° (NNW) 2,075 ? -13.0°
Sets 14:40:20 0° 341° (NNW) 2,984 ? -13.3°
